�������l�o���
Date,Time,MP-1(��Sv/h),MP-2(��Sv/h),MP-3(��Sv/h),MP-4(��Sv/h),MP-5(��Sv/h),MP-6(��Sv/h),MP-7(��Sv/h),MP-8(��Sv/h),����,����(m/s),���J
2021/05/23,00:00,0.596,0.867,0.558,1.056,0.741,0.364,0.623,0.588,�k��,1.5,��
2021/05/23,00:10,0.595,0.866,0.559,1.056,0.741,0.363,0.623,0.589,�k��,2.2,��
2021/05/23,00:20,0.593,0.866,0.559,1.059,0.742,0.363,0.622,0.589,�k��,2.0,��
2021/05/23,00:30,0.595,0.866,0.558,1.059,0.743,0.363,0.624,0.590,�k�k��,2.2,��
2021/05/23,00:40,0.592,0.866,0.558,1.056,0.739,0.364,0.624,0.588,�k,3.7,��
2021/05/23,00:50,0.591,0.868,0.558,1.058,0.741,0.363,0.622,0.589,�k�k��,3.8,��
2021/05/23,01:00,0.592,0.866,0.558,1.060,0.740,0.363,0.623,0.588,�k�k��,4.1,��
2021/05/23,01:10,0.594,0.867,0.557,1.058,0.742,0.361,0.622,0.589,�k,2.8,��
2021/05/23,01:20,0.593,0.868,0.557,1.059,0.741,0.362,0.624,0.589,�k,2.9,��
2021/05/23,01:30,0.594,0.866,0.557,1.059,0.739,0.363,0.623,0.587,�k,2.8,��
2021/05/23,01:40,0.593,0.868,0.557,1.059,0.740,0.361,0.624,0.586,�k,3.2,��
2021/05/23,01:50,0.593,0.869,0.558,1.062,0.742,0.362,0.624,0.588,�k�k��,2.8,��
2021/05/23,02:00,0.594,0.869,0.558,1.060,0.743,0.362,0.623,0.588,�k,2.5,��
2021/05/23,02:10,0.593,0.871,0.557,1.060,0.740,0.362,0.624,0.590,�k,1.7,��
2021/05/23,02:20,0.593,0.869,0.557,1.064,0.742,0.362,0.623,0.589,�k,1.2,��
2021/05/23,02:30,0.592,0.868,0.556,1.062,0.743,0.361,0.624,0.590,�k,1.9,��
2021/05/23,02:40,0.593,0.868,0.557,1.063,0.746,0.363,0.624,0.591,�k�k��,1.7,��
2021/05/23,02:50,0.593,0.868,0.560,1.062,0.745,0.362,0.624,0.589,�k�k��,1.7,�L
2021/05/23,03:00,0.594,0.870,0.557,1.061,0.746,0.362,0.626,0.591,�k,1.5,�L
2021/05/23,03:10,0.594,0.871,0.559,1.063,0.745,0.362,0.624,0.590,�k�k��,0.9,�L
2021/05/23,03:20,0.593,0.872,0.560,1.066,0.745,0.364,0.626,0.590,�k,1.2,�L
2021/05/23,03:30,0.594,0.871,0.558,1.064,0.746,0.364,0.626,0.592,�k,0.9,�L
2021/05/23,03:40,0.597,0.872,0.560,1.063,0.746,0.364,0.625,0.591,�k�k��,2.0,�L
2021/05/23,03:50,0.595,0.871,0.560,1.065,0.746,0.364,0.625,0.591,�k�k��,2.3,�L
2021/05/23,04:00,0.594,0.871,0.560,1.065,0.746,0.365,0.624,0.592,�k��,1.7,�L
2021/05/23,04:10,0.596,0.870,0.560,1.064,0.745,0.364,0.623,0.589,�k��,1.2,�L
2021/05/23,04:20,0.597,0.871,0.560,1.064,0.744,0.365,0.624,0.590,�k�k��,1.5,�L
2021/05/23,04:30,0.596,0.870,0.558,1.063,0.744,0.364,0.624,0.590,�k��,1.2,�L
2021/05/23,04:40,0.595,0.869,0.560,1.065,0.746,0.364,0.624,0.590,�k�k��,1.1,�L
2021/05/23,04:50,0.595,0.871,0.558,1.064,0.744,0.363,0.624,0.590,�k��,1.2,�L
2021/05/23,05:00,0.595,0.870,0.558,1.063,0.745,0.364,0.626,0.589,�k��,0.9,�L
2021/05/23,05:10,0.595,0.871,0.559,1.065,0.747,0.363,0.623,0.590,�k��,1.5,�L
2021/05/23,05:20,0.596,0.870,0.558,1.061,0.745,0.364,0.624,0.591,�k�k��,0.9,�L
2021/05/23,05:30,0.594,0.872,0.558,1.062,0.747,0.365,0.624,0.591,���쓌,0.8,�L
2021/05/23,05:40,0.593,0.869,0.559,1.063,0.745,0.362,0.626,0.592,��,0.6,�L
2021/05/23,05:50,0.594,0.869,0.558,1.061,0.747,0.364,0.625,0.588,-,CALM,�L
2021/05/23,06:00,0.595,0.869,0.558,1.065,0.746,0.363,0.626,0.589,��쐼,0.6,�L
2021/05/23,06:10,0.595,0.871,0.559,1.064,0.746,0.363,0.627,0.590,��쓌,0.6,�L
2021/05/23,06:20,0.596,0.872,0.559,1.064,0.747,0.364,0.625,0.590,��,0.8,�L
2021/05/23,06:30,0.594,0.871,0.558,1.063,0.747,0.362,0.626,0.589,-,CALM,�L
2021/05/23,06:40,0.594,0.869,0.559,1.063,0.748,0.361,0.624,0.591,��,1.2,�L
2021/05/23,06:50,0.594,0.872,0.559,1.065,0.746,0.362,0.626,0.589,��쐼,0.9,�L
2021/05/23,07:00,0.597,0.873,0.559,1.064,0.748,0.363,0.623,0.590,�쐼,0.9,�L
2021/05/23,07:10,0.594,0.872,0.559,1.063,0.748,0.363,0.625,0.590,��,0.9,�L
2021/05/23,07:20,0.595,0.872,0.560,1.066,0.749,0.364,0.622,0.590,���쓌,1.2,�L
2021/05/23,07:30,0.595,0.872,0.561,1.066,0.749,0.364,0.625,0.589,�쓌,1.2,�L
2021/05/23,07:40,0.595,0.873,0.561,1.064,0.748,0.363,0.625,0.589,�쓌,1.5,��
2021/05/23,07:50,0.594,0.872,0.561,1.064,0.751,0.363,0.625,0.589,���쓌,1.9,��
2021/05/23,08:00,0.596,0.872,0.560,1.067,0.749,0.361,0.625,0.590,��,1.5,��
2021/05/23,08:10,0.597,0.873,0.561,1.064,0.750,0.362,0.625,0.590,�쓌,1.1,��
2021/05/23,08:20,0.594,0.874,0.561,1.065,0.751,0.362,0.625,0.590,�쓌,2.6,��
2021/05/23,08:30,0.596,0.871,0.561,1.065,0.749,0.362,0.627,0.589,���쓌,2.3,��
2021/05/23,08:40,0.595,0.873,0.560,1.068,0.748,0.362,0.623,0.589,���쓌,2.2,��
2021/05/23,08:50,0.594,0.873,0.560,1.066,0.750,0.363,0.626,0.589,��,1.7,��
2021/05/23,09:00,0.593,0.875,0.559,1.065,0.749,0.362,0.626,0.589,��,1.7,��
2021/05/23,09:10,0.595,0.876,0.559,1.065,0.749,0.362,0.628,0.589,��,1.9,��
2021/05/23,09:20,0.594,0.876,0.561,1.068,0.750,0.361,0.627,0.588,���쓌,2.0,��
2021/05/23,09:30,0.594,0.876,0.560,1.067,0.749,0.362,0.628,0.589,��,2.3,��
2021/05/23,09:40,0.597,0.878,0.560,1.069,0.752,0.361,0.627,0.590,���쓌,2.6,��
2021/05/23,09:50,0.597,0.879,0.560,1.068,0.752,0.362,0.627,0.589,��,2.3,��
2021/05/23,10:00,0.598,0.879,0.561,1.069,0.753,0.361,0.628,0.588,�쓌,2.3,��
2021/05/23,10:10,0.597,0.881,0.562,1.068,0.751,0.362,0.628,0.590,��쓌,2.2,��
2021/05/23,10:20,0.598,0.882,0.561,1.068,0.752,0.363,0.627,0.590,���쓌,2.2,��
2021/05/23,10:30,0.599,0.881,0.561,1.071,0.752,0.362,0.628,0.590,�쓌,2.8,��
2021/05/23,10:40,0.599,0.883,0.561,1.072,0.755,0.363,0.628,0.589,���쓌,2.9,��
2021/05/23,10:50,0.598,0.881,0.562,1.071,0.753,0.364,0.628,0.590,�쓌,1.7,��
2021/05/23,11:00,0.599,0.881,0.563,1.070,0.755,0.363,0.628,0.590,��쓌,2.6,��
2021/05/23,11:10,0.596,0.882,0.562,1.073,0.754,0.363,0.629,0.590,��쓌,3.1,��
2021/05/23,11:20,0.600,0.882,0.563,1.071,0.755,0.363,0.629,0.590,��쓌,4.0,��
2021/05/23,11:30,0.600,0.885,0.563,1.071,0.754,0.363,0.630,0.590,��쓌,4.3,��
2021/05/23,11:40,0.599,0.882,0.564,1.072,0.755,0.363,0.628,0.589,��쓌,4.4,��
2021/05/23,11:50,0.599,0.883,0.563,1.071,0.758,0.363,0.629,0.591,��쓌,4.5,��
2021/05/23,12:00,0.602,0.884,0.564,1.071,0.757,0.364,0.631,0.591,��,4.1,��
2021/05/23,12:10,0.601,0.887,0.564,1.071,0.757,0.363,0.631,0.591,��,4.7,��
2021/05/23,12:20,0.601,0.887,0.564,1.070,0.759,0.364,0.628,0.590,��쓌,5.6,��
2021/05/23,12:30,0.600,0.887,0.566,1.069,0.757,0.365,0.630,0.592,��쓌,4.7,��
2021/05/23,12:40,0.601,0.888,0.565,1.069,0.758,0.363,0.630,0.592,��쓌,5.8,��
2021/05/23,12:50,0.600,0.888,0.565,1.070,0.757,0.364,0.630,0.591,��쓌,5.0,��
2021/05/23,13:00,0.600,0.888,0.565,1.073,0.761,0.364,0.631,0.592,�쓌,4.2,��
2021/05/23,13:10,0.602,0.889,0.567,1.072,0.758,0.366,0.631,0.591,�쓌,6.2,��
2021/05/23,13:20,0.603,0.887,0.567,1.071,0.759,0.363,0.632,0.593,��쓌,6.7,��
2021/05/23,13:30,0.603,0.889,0.565,1.070,0.757,0.363,0.631,0.591,��쓌,6.1,��
2021/05/23,13:40,0.603,0.889,0.565,1.073,0.758,0.363,0.630,0.592,��쓌,6.9,��
2021/05/23,13:50,0.603,0.890,0.567,1.073,0.759,0.364,0.631,0.591,��쓌,6.1,��
2021/05/23,14:00,0.604,0.889,0.567,1.076,0.759,0.365,0.630,0.593,��쓌,5.8,��
2021/05/23,14:10,0.605,0.888,0.567,1.074,0.760,0.365,0.634,0.592,��쓌,5.2,��
2021/05/23,14:20,0.606,0.890,0.568,1.074,0.761,0.364,0.632,0.592,��쓌,5.9,��
2021/05/23,14:30,0.604,0.889,0.569,1.076,0.761,0.365,0.633,0.592,��쓌,5.8,��
2021/05/23,14:40,0.605,0.893,0.566,1.074,0.761,0.365,0.632,0.594,��쓌,4.6,��
2021/05/23,14:50,0.605,0.891,0.568,1.077,0.761,0.365,0.633,0.592,��쓌,4.3,��
2021/05/23,15:00,0.605,0.890,0.567,1.076,0.762,0.365,0.631,0.595,��,3.9,��
2021/05/23,15:10,0.604,0.891,0.569,1.076,0.762,0.365,0.632,0.593,��,4.3,��
2021/05/23,15:20,0.605,0.894,0.567,1.075,0.761,0.365,0.631,0.594,��,4.1,��
2021/05/23,15:30,0.605,0.892,0.567,1.076,0.763,0.366,0.633,0.592,��쐼,3.9,��
2021/05/23,15:40,0.606,0.892,0.568,1.078,0.762,0.366,0.633,0.593,�쐼,5.4,��
2021/05/23,15:50,0.604,0.893,0.567,1.074,0.762,0.365,0.632,0.595,��,4.8,��
2021/05/23,16:00,0.606,0.891,0.568,1.076,0.762,0.366,0.632,0.593,��,5.9,��
2021/05/23,16:10,0.605,0.891,0.567,1.080,0.762,0.366,0.633,0.592,���쐼,5.1,��
2021/05/23,16:20,0.606,0.893,0.569,1.074,0.763,0.367,0.633,0.594,���쐼,6.4,��
2021/05/23,16:30,0.606,0.892,0.570,1.080,0.763,0.367,0.634,0.592,��,7.4,��
2021/05/23,16:40,0.607,0.893,0.569,1.080,0.763,0.366,0.633,0.594,���k��,8.5,��
2021/05/23,16:50,0.607,0.894,0.567,1.080,0.763,0.366,0.634,0.594,��,7.6,��
2021/05/23,17:00,0.606,0.892,0.569,1.080,0.763,0.367,0.635,0.594,��,5.1,��
2021/05/23,17:10,0.606,0.891,0.570,1.079,0.764,0.369,0.634,0.593,��,4.6,��
2021/05/23,17:20,0.607,0.895,0.570,1.080,0.764,0.365,0.634,0.595,��,7.6,��
2021/05/23,17:30,0.606,0.893,0.569,1.080,0.763,0.365,0.633,0.595,��,6.7,��
2021/05/23,17:40,0.607,0.893,0.570,1.079,0.763,0.366,0.634,0.595,��,5.3,��
2021/05/23,17:50,0.607,0.897,0.569,1.079,0.762,0.363,0.634,0.595,��,4.8,��
2021/05/23,18:00,0.607,0.896,0.570,1.082,0.762,0.367,0.633,0.594,��,4.9,��
2021/05/23,18:10,0.606,0.897,0.569,1.080,0.764,0.366,0.634,0.594,��,4.8,��
2021/05/23,18:20,0.606,0.898,0.570,1.081,0.764,0.363,0.633,0.595,��,4.9,��
2021/05/23,18:30,0.606,0.895,0.569,1.081,0.764,0.365,0.635,0.595,���k��,5.2,��
2021/05/23,18:40,0.606,0.894,0.571,1.081,0.766,0.366,0.634,0.595,�k��,4.0,��
2021/05/23,18:50,0.605,0.895,0.568,1.085,0.764,0.367,0.633,0.595,���k��,3.7,��
2021/05/23,19:00,0.607,0.894,0.567,1.082,0.765,0.367,0.632,0.595,�k��,2.9,��
2021/05/23,19:10,0.608,0.896,0.568,1.086,0.765,0.367,0.633,0.597,�k��,3.4,��
2021/05/23,19:20,0.610,0.895,0.570,1.085,0.768,0.367,0.631,0.597,�k��,2.6,��
2021/05/23,19:30,0.608,0.896,0.571,1.085,0.767,0.368,0.633,0.597,�k��,1.7,��
2021/05/23,19:40,0.609,0.895,0.571,1.086,0.765,0.366,0.634,0.596,�k��,1.4,��
2021/05/23,19:50,0.609,0.895,0.572,1.086,0.767,0.367,0.634,0.598,��,4.0,��
2021/05/23,20:00,0.609,0.895,0.572,1.086,0.766,0.368,0.635,0.597,���쐼,7.3,��
2021/05/23,20:10,0.609,0.896,0.573,1.086,0.770,0.367,0.637,0.596,���쐼,7.6,��
2021/05/23,20:20,0.608,0.895,0.571,1.087,0.766,0.367,0.635,0.597,��,7.2,��
2021/05/23,20:30,0.610,0.895,0.571,1.088,0.767,0.366,0.634,0.596,���쐼,6.7,��
2021/05/23,20:40,0.608,0.896,0.572,1.083,0.766,0.365,0.634,0.597,��,6.5,��
2021/05/23,20:50,0.609,0.897,0.571,1.089,0.766,0.366,0.635,0.596,��,8.7,��
2021/05/23,21:00,0.609,0.898,0.572,1.087,0.765,0.366,0.633,0.597,��,6.5,��
2021/05/23,21:10,0.607,0.895,0.571,1.086,0.765,0.365,0.633,0.596,���k��,6.0,��
2021/05/23,21:20,0.609,0.895,0.571,1.087,0.766,0.367,0.634,0.595,���k��,6.2,��
2021/05/23,21:30,0.608,0.896,0.572,1.088,0.766,0.366,0.634,0.596,���k��,5.9,��
2021/05/23,21:40,0.609,0.894,0.571,1.087,0.768,0.367,0.634,0.597,��,6.2,��
2021/05/23,21:50,0.608,0.896,0.572,1.088,0.766,0.367,0.635,0.599,��,5.5,��
2021/05/23,22:00,0.609,0.895,0.573,1.088,0.767,0.367,0.636,0.597,���k��,4.4,��
2021/05/23,22:10,0.608,0.897,0.573,1.088,0.769,0.366,0.633,0.599,���k��,3.0,��
2021/05/23,22:20,0.608,0.896,0.573,1.088,0.768,0.367,0.635,0.598,���k��,2.8,��
2021/05/23,22:30,0.608,0.894,0.570,1.088,0.769,0.365,0.634,0.598,���k��,3.9,��
2021/05/23,22:40,0.609,0.893,0.572,1.088,0.766,0.367,0.636,0.597,���k��,4.3,��
2021/05/23,22:50,0.607,0.894,0.571,1.087,0.769,0.366,0.635,0.599,���k��,4.5,��
2021/05/23,23:00,0.609,0.895,0.572,1.088,0.768,0.367,0.635,0.595,��,5.0,��
2021/05/23,23:10,0.608,0.893,0.571,1.089,0.768,0.368,0.636,0.598,��,5.1,��
2021/05/23,23:20,0.608,0.894,0.572,1.089,0.770,0.368,0.637,0.598,��,6.6,��
2021/05/23,23:30,0.610,0.894,0.572,1.087,0.768,0.368,0.634,0.598,���쐼,5.3,��
2021/05/23,23:40,0.609,0.895,0.570,1.091,0.768,0.367,0.636,0.598,���k��,2.9,��
2021/05/23,23:50,0.608,0.893,0.572,1.091,0.769,0.368,0.636,0.598,�k,1.5,��
